(380850) = 2006 BW54 = 2007 PV47

Discovered at 7300 on 2006-01-23 by W. K. Y. Yeung.

Orbit

Orbit type: Main Belt

Note: WebGL enabled browser required.

epoch2023-02-25.0
epoch JD2460000.5
perihelion date2019-07-19.42669
perihelion JD2458683.92669
argument of perihelion (°)289.96797
ascending node (°)302.49504
inclination (°)16.18440
eccentricity0.1630803
perihelion distance (AU)2.1832749
Tisserand w.r.t. Jupiter3.3
ΔV w.r.t. Earth (km/sec)10.5
semimajor axis (AU)2.6087030
mean anomaly (°)307.97249
mean daily motion (°/day)0.23391980
aphelion distance (AU)3.034
period (years)4.21
P-vector [x]-0.57785716
P-vector [y]-0.60496033
P-vector [z]-0.54781758
Q-vector [x]0.78154543
Q-vector [y]-0.60353043
Q-vector [z]-0.15791691
absolute magnitude16.25
phase slope0.15
uncertainty0
referenceMPO 745323
observations used313
oppositions11
arc length (days)6330
first opposition used2006
last opposition used2023
residual rms (arc-secs)0.79
perturbers coarse indicatorM-v
perturbers precise indicator003Ek
first observation date used2006-01-23.0
last observation date used2023-05-24.0
computer nameMPCLINUX
JD of orbit computation2456670.794058
perihelion JD uncertainty (days)1.2179E-03
argument of perihelion uncertainty (°)2.3154E-04
ascending node uncertainty (°)3.0786E-05
inclination uncertainty (°)2.3555E-05
eccentricity uncertainty 1.3393E-07
perihelion distance uncertainty (AU)3.1883E-07
Minimum Orbit Intersection Distances (in AU)
for orbit epoch: 2460000.5, reference: E2023-KF8
Mercury1.73653
Venus1.49784
Earth1.22876
Mars0.79541
Jupiter2.24109
Saturn6.1942
Uranus15.9304
Neptune27.0029

Observations

316 total observations over interval: 2006 01 23.24940 – 2023 05 24.188415
These data are available for download (format description).

Date (UT) J2000 RA J2000 Dec Magn Location Ref
2006 01 23.24940 09 59 42.22 +03 56 57.4 20.5 R H07 – 7300 Observatory, Cloudcroft MPS 160651
2006 01 23.29105 09 59 40.09 +03 56 47.5 19.7 V 703 – Catalina Sky Survey MPS 161944
2006 01 23.29752 09 59 39.76 +03 56 46.2 19.8 V 703 – Catalina Sky Survey MPS 161944
2006 01 23.30400 09 59 39.44 +03 56 44.7 19.9 V 703 – Catalina Sky Survey MPS 161944
2006 01 23.31048 09 59 39.15 +03 56 43.3 20.0 V 703 – Catalina Sky Survey MPS 161944
2006 01 23.33366 09 59 37.91 +03 56 37.2 20.8 R H07 – 7300 Observatory, Cloudcroft MPS 160651
2006 01 23.41689 09 59 33.64 +03 56 17.9 20.8 R H07 – 7300 Observatory, Cloudcroft MPS 160651
2006 01 27.28098 09 56 11.44 +03 42 16.2 20.2 R H07 – 7300 Observatory, Cloudcroft MPS 160651
2006 01 27.33694 09 56 08.27 +03 42 04.6 20.2 R H07 – 7300 Observatory, Cloudcroft MPS 160651
2006 01 27.39209 09 56 05.09 +03 41 53.5 20.3 R H07 – 7300 Observatory, Cloudcroft MPS 160651
2006 01 28.23847 09 55 18.30 +03 39 05.0 20.0 R H07 – 7300 Observatory, Cloudcroft MPS 161944
2006 01 28.30113 09 55 14.66 +03 38 52.4 20.6 R H07 – 7300 Observatory, Cloudcroft MPS 161944
2006 01 28.36354 09 55 11.04 +03 38 40.4 20.5 R H07 – 7300 Observatory, Cloudcroft MPS 161944
2006 01 30.32199 09 53 18.81 +03 32 33.3 19.1 V 703 – Catalina Sky Survey MPS 161944
2006 01 30.32683 09 53 18.52 +03 32 33.0 19.2 V 703 – Catalina Sky Survey MPS 161944
2006 01 30.33164 09 53 18.24 +03 32 31.4 19.8 V 703 – Catalina Sky Survey MPS 161944
2006 01 30.33645 09 53 17.95 +03 32 30.3 19.5 V 703 – Catalina Sky Survey MPS 161944
2006 02 04.22837 09 48 20.21 +03 19 21.6 20.5 R H07 – 7300 Observatory, Cloudcroft MPS 162910
2006 02 04.25867 09 48 18.28 +03 19 17.6 20.5 R H07 – 7300 Observatory, Cloudcroft MPS 162910
2006 02 04.28876 09 48 16.34 +03 19 12.9 19.6 R H07 – 7300 Observatory, Cloudcroft MPS 162910
2007 08 09.22023 20 24 44.96 -15 52 02.5 19.1   704 – Lincoln Laboratory ETS, New Mexico MPS 289864
2007 08 09.23207 20 24 44.20 -15 52 00.5 19.2   704 – Lincoln Laboratory ETS, New Mexico MPS 289864
2007 08 09.25576 20 24 42.68 -15 51 55.2 19.4   704 – Lincoln Laboratory ETS, New Mexico MPS 289864
2007 08 16.20308 20 17 59.51 -15 27 47.2 19.6 C 704 – Lincoln Laboratory ETS, New Mexico MPS 289864
2007 08 16.22799 20 17 58.10 -15 27 42.1 18.6 C 704 – Lincoln Laboratory ETS, New Mexico MPS 289864
2007 08 16.24042 20 17 57.44 -15 27 40.6 18.9 C 704 – Lincoln Laboratory ETS, New Mexico MPS 289864
2007 08 16.25290 20 17 56.78 -15 27 36.5 19.7 C 704 – Lincoln Laboratory ETS, New Mexico MPS 289864
2009 11 19.45896 08 55 30.82 +21 45 01.7 21.1 V G96 – Mt. Lemmon Survey MPS 303341
2009 11 19.46472 08 55 30.93 +21 45 00.2 20.6 V G96 – Mt. Lemmon Survey MPS 303341
2009 11 19.47061 08 55 31.04 +21 44 58.3 20.6 V G96 – Mt. Lemmon Survey MPS 303341
2009 11 19.47646 08 55 31.18 +21 44 57.6 20.9 V G96 – Mt. Lemmon Survey MPS 303341
2010 01 06.22629 08 41 50.38 +19 31 11.8 19.9 V 691 – Steward Observatory, Kitt Peak-Spacewatch MPS 309403
2010 01 06.24398 08 41 49.39 +19 31 09.5 19.9 V 691 – Steward Observatory, Kitt Peak-Spacewatch MPS 309403
2010 01 06.26166 08 41 48.38 +19 31 07.9 20.0 V 691 – Steward Observatory, Kitt Peak-Spacewatch MPS 309403
2010 01 13.76341 08 34 12.66 +19 17 23.2 19.5 R D29 – Purple Mountain Observatory, XuYi Station MPS 311189
2010 01 13.77657 08 34 11.77 +19 17 22.9 19.5 R D29 – Purple Mountain Observatory, XuYi Station MPS 311189
2010 01 13.79072 08 34 10.84 +19 17 19.9 19.9 R D29 – Purple Mountain Observatory, XuYi Station MPS 311189
2010 01 13.80479 08 34 09.97 +19 17 18.6 19.5 R D29 – Purple Mountain Observatory, XuYi Station MPS 311189
2010 02 17.21228 07 57 08.03 +17 59 03.8 19.8   704 – Lincoln Laboratory ETS, New Mexico MPS 313263
2010 02 17.22451 07 57 07.49 +17 59 02.7 20.5   704 – Lincoln Laboratory ETS, New Mexico MPS 313263
2010 02 17.23672 07 57 06.84 +17 59 00.0 20.2   704 – Lincoln Laboratory ETS, New Mexico MPS 313263
2010 02 17.24896 07 57 06.20 +17 58 57.0 20.6   704 – Lincoln Laboratory ETS, New Mexico MPS 313263
2010 02 17.26105 07 57 05.54 +17 58 55.5 20.3   704 – Lincoln Laboratory ETS, New Mexico MPS 313263
2010 04 11.933735 07 54 10.92 +14 50 56.4   C51 – WISE MPS 340747
2010 04 12.198344 07 54 21.54 +14 49 48.2   C51 – WISE MPS 340747
2010 04 12.330647 07 54 26.75 +14 49 14.5   C51 – WISE MPS 340747
2010 04 12.39674 07 54 29.61 +14 48 58.1   C51 – WISE MPS 340747
2010 04 12.46295 07 54 32.14 +14 48 40.9   C51 – WISE MPS 340747
2010 04 12.529039 07 54 34.89 +14 48 24.4   C51 – WISE MPS 340747
2010 04 12.595256 07 54 37.66 +14 48 07.4   C51 – WISE MPS 340747
2010 04 12.66134 07 54 40.36 +14 47 49.2   C51 – WISE MPS 340747
2010 04 12.66147 07 54 40.30 +14 47 51.1   C51 – WISE MPS 340747
2010 04 12.793775 07 54 45.72 +14 47 17.3   C51 – WISE MPS 340747
2010 04 12.926080 07 54 51.28 +14 46 41.0   C51 – WISE MPS 340747
2010 04 13.058384 07 54 56.63 +14 46 06.7   C51 – WISE MPS 340747
2012 10 09.81338 01 02 08.94 +32 22 01.7 20.3 R B15 – Inastars Observatory, Potsdam (since 2006) MPS 435102
2012 10 09.81574 01 02 08.78 +32 22 01.2 20.4 R B15 – Inastars Observatory, Potsdam (since 2006) MPS 435102
2012 10 09.82284 01 02 08.34 +32 21 59.7 20.5 R B15 – Inastars Observatory, Potsdam (since 2006) MPS 435102
2012 10 09.82521 01 02 08.20 +32 21 59.2 20.4 R B15 – Inastars Observatory, Potsdam (since 2006) MPS 435102
2013 12 11.80429 07 33 13.00 +31 02 08.3 20.3 R D29 – Purple Mountain Observatory, XuYi Station MPS 490979
2013 12 11.82417 07 33 12.02 +31 02 07.9 21.0 R D29 – Purple Mountain Observatory, XuYi Station MPS 490979
2013 12 11.84406 07 33 11.02 +31 02 07.5 20.9 R D29 – Purple Mountain Observatory, XuYi Station MPS 490979
2013 12 31.27244 07 13 17.17 +30 36 45.0 19.8 V G96 – Mt. Lemmon Survey MPS 495247
2013 12 31.28099 07 13 16.56 +30 36 43.7 19.9 V G96 – Mt. Lemmon Survey MPS 495247
2013 12 31.29807 07 13 15.33 +30 36 41.6 19.9 V G96 – Mt. Lemmon Survey MPS 495247
2014 01 07.12003 07 05 05.55 +30 18 26.6 20.2 V 691 – Steward Observatory, Kitt Peak-Spacewatch MPS 496542
2014 01 07.13781 07 05 04.26 +30 18 23.7 19.9 V 691 – Steward Observatory, Kitt Peak-Spacewatch MPS 496542
2014 01 07.15306 07 05 03.26 +30 18 21.6 19.3 V 691 – Steward Observatory, Kitt Peak-Spacewatch MPS 496542
2014 01 07.32332 07 04 50.58 +30 17 49.8 19.6 V G96 – Mt. Lemmon Survey MPS 496542
2014 01 07.32956 07 04 50.11 +30 17 48.8 19.8 V G96 – Mt. Lemmon Survey MPS 496542
2014 01 07.33578 07 04 49.66 +30 17 47.4 19.7 V G96 – Mt. Lemmon Survey MPS 496542
2015 06 22.34265 14 56 29.954 -39 28 25.87 19.4 i F52 – Pan-STARRS 2, Haleakala MPS 614101
2015 06 22.35206 14 56 29.932 -39 28 18.77 19.3 i F52 – Pan-STARRS 2, Haleakala MPS 614101
2015 06 22.36136 14 56 29.898 -39 28 12.06 19.5 i F52 – Pan-STARRS 2, Haleakala MPS 614101
2015 06 22.37073 14 56 29.885 -39 28 04.72 19.3 i F52 – Pan-STARRS 2, Haleakala MPS 614101
2016 09 10.34622 00 05 40.68 +23 41 08.6 20.5 V G96 – Mt. Lemmon Survey MPS 729823
2016 09 10.35004 00 05 40.47 +23 41 08.8 20.4 V G96 – Mt. Lemmon Survey MPS 729823
2016 09 10.35385 00 05 40.28 +23 41 08.7 20.5 V G96 – Mt. Lemmon Survey MPS 729823
2016 09 10.35769 00 05 39.98 +23 41 09.2 20.5 V G96 – Mt. Lemmon Survey MPS 729823
2016 09 19.50295 23 56 52.286 +23 30 09.49 20.2 i F51 – Pan-STARRS 1, Haleakala MPS 730652
2016 09 19.51504 23 56 51.550 +23 30 07.78 20.1 i F51 – Pan-STARRS 1, Haleakala MPS 730652
2016 09 19.52711 23 56 50.808 +23 30 06.30 20.3 i F51 – Pan-STARRS 1, Haleakala MPS 730652
2016 09 19.53923 23 56 50.056 +23 30 04.07 20.1 i F51 – Pan-STARRS 1, Haleakala MPS 730652
2016 09 21.47030 23 54 55.939 +23 25 09.04 20.3 r F51 – Pan-STARRS 1, Haleakala MPS 730652
2016 09 21.48317 23 54 55.160 +23 25 06.76 20.2 r F51 – Pan-STARRS 1, Haleakala MPS 730652
2016 09 21.49607 23 54 54.372 +23 25 04.57 20.4 r F51 – Pan-STARRS 1, Haleakala MPS 730652
2016 09 22.28282 23 54 07.95 +23 22 48.3 20.1 V G96 – Mt. Lemmon Survey MPS 730652
2016 09 22.28709 23 54 07.70 +23 22 47.6 20.2 V G96 – Mt. Lemmon Survey MPS 730652
2016 09 22.29919 23 54 06.96 +23 22 45.0 20.4 V G96 – Mt. Lemmon Survey MPS 730652
2016 10 07.26543 23 40 02.654 +22 15 57.72 20.4 i F51 – Pan-STARRS 1, Haleakala MPS 734137
